Year,Month,Day,Hour,Minute,Value (Times are PST for barometer in hPa)
2024,03,01,00,00,994.68
2024,03,01,00,01,994.68
2024,03,01,00,02,994.72
2024,03,01,00,03,994.72
2024,03,01,00,04,994.62
2024,03,01,00,05,994.68
2024,03,01,00,06,994.72
2024,03,01,00,07,994.68
2024,03,01,00,08,994.72
2024,03,01,00,09,994.75
2024,03,01,00,10,994.72
2024,03,01,00,11,994.72
2024,03,01,00,12,994.62
2024,03,01,00,13,994.58
2024,03,01,00,14,994.62
2024,03,01,00,15,994.58
2024,03,01,00,16,994.52
2024,03,01,00,17,994.58
2024,03,01,00,18,994.62
2024,03,01,00,19,994.52
2024,03,01,00,20,994.55
2024,03,01,00,21,994.58
2024,03,01,00,22,994.52
2024,03,01,00,23,994.58
2024,03,01,00,24,994.58
2024,03,01,00,25,994.62
2024,03,01,00,26,994.55
2024,03,01,00,27,994.58
2024,03,01,00,28,994.62
2024,03,01,00,29,994.72
2024,03,01,00,30,994.75
2024,03,01,00,31,994.75
2024,03,01,00,32,994.79
2024,03,01,00,33,994.89
2024,03,01,00,34,994.85
2024,03,01,00,35,994.92
2024,03,01,00,36,994.92
2024,03,01,00,37,994.99
2024,03,01,00,38,994.96
2024,03,01,00,39,994.96
2024,03,01,00,40,994.92
2024,03,01,00,41,994.92
2024,03,01,00,42,995.02
2024,03,01,00,43,994.99
2024,03,01,00,44,994.99
2024,03,01,00,45,995.02
2024,03,01,00,46,994.99
2024,03,01,00,47,995.02
2024,03,01,00,48,995.06
2024,03,01,00,49,995.06
2024,03,01,00,50,995.02
2024,03,01,00,51,995.02
2024,03,01,00,52,994.96
2024,03,01,00,53,994.99
2024,03,01,00,54,994.92
2024,03,01,00,55,994.89
2024,03,01,00,56,994.92
2024,03,01,00,57,994.89
2024,03,01,00,58,994.92
2024,03,01,00,59,994.96
2024,03,01,01,00,994.96
2024,03,01,01,01,994.99
2024,03,01,01,02,994.96
2024,03,01,01,03,994.99
2024,03,01,01,04,994.99
2024,03,01,01,05,994.92
2024,03,01,01,06,994.89
2024,03,01,01,07,994.96
2024,03,01,01,08,995.02
2024,03,01,01,09,995.02
2024,03,01,01,10,995.02
2024,03,01,01,11,994.99
2024,03,01,01,12,995.02
2024,03,01,01,13,995.02
2024,03,01,01,14,995.02
2024,03,01,01,15,995.09
2024,03,01,01,16,995.09
2024,03,01,01,17,995.12
2024,03,01,01,18,995.12
2024,03,01,01,19,995.12
2024,03,01,01,20,995.12
2024,03,01,01,21,995.12
2024,03,01,01,22,995.19
2024,03,01,01,23,995.19
2024,03,01,01,24,995.23
2024,03,01,01,25,995.23
2024,03,01,01,26,995.23
2024,03,01,01,27,995.23
2024,03,01,01,28,995.29
2024,03,01,01,29,995.33
2024,03,01,01,30,995.29
2024,03,01,01,31,995.33
2024,03,01,01,32,995.36
2024,03,01,01,33,995.29
2024,03,01,01,34,995.36
2024,03,01,01,35,995.33
2024,03,01,01,36,995.36
2024,03,01,01,37,995.36
2024,03,01,01,38,995.40
2024,03,01,01,39,995.40
2024,03,01,01,40,995.46
2024,03,01,01,41,995.43
2024,03,01,01,42,995.43
2024,03,01,01,43,995.50
2024,03,01,01,44,995.50
2024,03,01,01,45,995.50
2024,03,01,01,46,995.53
2024,03,01,01,47,995.63
2024,03,01,01,48,995.56
2024,03,01,01,49,995.53
2024,03,01,01,50,995.56
2024,03,01,01,51,995.60
2024,03,01,01,52,995.56
2024,03,01,01,53,995.56
2024,03,01,01,54,995.60
2024,03,01,01,55,995.60
2024,03,01,01,56,995.53
2024,03,01,01,57,995.60
2024,03,01,01,58,995.60
2024,03,01,01,59,995.63
2024,03,01,02,00,995.60
2024,03,01,02,01,995.63
2024,03,01,02,02,995.63
2024,03,01,02,03,995.67
2024,03,01,02,04,995.73
2024,03,01,02,05,995.63
2024,03,01,02,06,995.56
2024,03,01,02,07,995.63
2024,03,01,02,08,995.63
2024,03,01,02,09,995.56
2024,03,01,02,10,995.60
2024,03,01,02,11,995.63
2024,03,01,02,12,995.67
2024,03,01,02,13,995.63
2024,03,01,02,14,995.67
2024,03,01,02,15,995.67
2024,03,01,02,16,995.67
2024,03,01,02,17,995.77
2024,03,01,02,18,995.77
2024,03,01,02,19,995.73
2024,03,01,02,20,995.73
2024,03,01,02,21,995.73
2024,03,01,02,22,995.77
2024,03,01,02,23,995.77
2024,03,01,02,24,995.80
2024,03,01,02,25,995.77
2024,03,01,02,26,995.73
2024,03,01,02,27,995.73
2024,03,01,02,28,995.73
2024,03,01,02,29,995.73
2024,03,01,02,30,995.70
2024,03,01,02,31,995.77
2024,03,01,02,32,995.80
2024,03,01,02,33,995.67
2024,03,01,02,34,995.70
2024,03,01,02,35,995.63
2024,03,01,02,36,995.63
2024,03,01,02,37,995.70
2024,03,01,02,38,995.67
2024,03,01,02,39,995.63
2024,03,01,02,40,995.70
2024,03,01,02,41,995.70
2024,03,01,02,42,995.63
2024,03,01,02,43,995.70
2024,03,01,02,44,995.67
2024,03,01,02,45,995.67
2024,03,01,02,46,995.67
2024,03,01,02,47,995.70
2024,03,01,02,48,995.60
2024,03,01,02,49,995.56
2024,03,01,02,50,995.56
2024,03,01,02,51,995.50
2024,03,01,02,52,995.53
2024,03,01,02,53,995.56
2024,03,01,02,54,995.56
2024,03,01,02,55,995.63
2024,03,01,02,56,995.56
2024,03,01,02,57,995.63
2024,03,01,02,58,995.67
2024,03,01,02,59,995.67
2024,03,01,03,00,995.73
2024,03,01,03,01,995.70
2024,03,01,03,02,995.80
2024,03,01,03,03,995.77
2024,03,01,03,04,995.70
2024,03,01,03,05,995.73
2024,03,01,03,06,995.63
2024,03,01,03,07,995.63
2024,03,01,03,08,995.70
2024,03,01,03,09,995.70
2024,03,01,03,10,995.63
2024,03,01,03,11,995.63
2024,03,01,03,12,995.60
2024,03,01,03,13,995.67
2024,03,01,03,14,995.60
2024,03,01,03,15,995.56
2024,03,01,03,16,995.60
2024,03,01,03,17,995.60
2024,03,01,03,18,995.63
2024,03,01,03,19,995.63
2024,03,01,03,20,995.67
2024,03,01,03,21,995.67
2024,03,01,03,22,995.70
2024,03,01,03,23,995.70
2024,03,01,03,24,995.70
2024,03,01,03,25,995.63
2024,03,01,03,26,995.70
2024,03,01,03,27,995.77
2024,03,01,03,28,995.70
2024,03,01,03,29,995.67
2024,03,01,03,30,995.70
2024,03,01,03,31,995.73
2024,03,01,03,32,995.70
2024,03,01,03,33,995.73
2024,03,01,03,34,995.77
2024,03,01,03,35,995.73
2024,03,01,03,36,995.73
2024,03,01,03,37,995.73
2024,03,01,03,38,995.73
2024,03,01,03,39,995.70
2024,03,01,03,40,995.77
2024,03,01,03,41,995.73
2024,03,01,03,42,995.73
2024,03,01,03,43,995.80
2024,03,01,03,44,995.77
2024,03,01,03,45,995.77
2024,03,01,03,46,995.77
2024,03,01,03,47,995.73
2024,03,01,03,48,995.73
2024,03,01,03,49,995.67
2024,03,01,03,50,995.70
2024,03,01,03,51,995.67
2024,03,01,03,52,995.70
2024,03,01,03,53,995.67
2024,03,01,03,54,995.70
2024,03,01,03,55,995.67
2024,03,01,03,56,995.67
2024,03,01,03,57,995.70
2024,03,01,03,58,995.73
2024,03,01,03,59,995.70
2024,03,01,04,00,995.70
2024,03,01,04,01,995.77
2024,03,01,04,02,995.73
2024,03,01,04,03,995.73
2024,03,01,04,04,995.73
2024,03,01,04,05,995.77
2024,03,01,04,06,995.73
2024,03,01,04,07,995.73
2024,03,01,04,08,995.84
2024,03,01,04,09,995.84
2024,03,01,04,10,995.87
2024,03,01,04,11,995.94
2024,03,01,04,12,996.01
2024,03,01,04,13,996.04
2024,03,01,04,14,996.01
2024,03,01,04,15,996.01
2024,03,01,04,16,995.97
2024,03,01,04,17,995.97
2024,03,01,04,18,995.97
2024,03,01,04,19,995.97
2024,03,01,04,20,996.01
2024,03,01,04,21,996.01
2024,03,01,04,22,996.01
2024,03,01,04,23,996.01
2024,03,01,04,24,996.07
2024,03,01,04,25,996.07
2024,03,01,04,26,996.14
2024,03,01,04,27,996.21
2024,03,01,04,28,996.14
2024,03,01,04,29,996.21
2024,03,01,04,30,996.24
2024,03,01,04,31,996.21
2024,03,01,04,32,996.21
2024,03,01,04,33,996.21
2024,03,01,04,34,996.21
2024,03,01,04,35,996.17
2024,03,01,04,36,996.28
2024,03,01,04,37,996.28
2024,03,01,04,38,996.31
2024,03,01,04,39,996.31
2024,03,01,04,40,996.31
2024,03,01,04,41,996.38
2024,03,01,04,42,996.41
2024,03,01,04,43,996.45
2024,03,01,04,44,996.41
2024,03,01,04,45,996.38
2024,03,01,04,46,996.41
2024,03,01,04,47,996.45
2024,03,01,04,48,996.48
2024,03,01,04,49,996.45
2024,03,01,04,50,996.48
2024,03,01,04,51,996.51
2024,03,01,04,52,996.58
2024,03,01,04,53,996.58
2024,03,01,04,54,996.55
2024,03,01,04,55,996.55
2024,03,01,04,56,996.51
2024,03,01,04,57,996.51
2024,03,01,04,58,996.55
2024,03,01,04,59,996.48
2024,03,01,05,00,996.48
2024,03,01,05,01,996.45
2024,03,01,05,02,996.51
2024,03,01,05,03,996.55
2024,03,01,05,04,996.58
2024,03,01,05,05,996.61
2024,03,01,05,06,996.58
2024,03,01,05,07,996.61
2024,03,01,05,08,996.61
2024,03,01,05,09,996.61
2024,03,01,05,10,996.55
2024,03,01,05,11,996.55
2024,03,01,05,12,996.58
2024,03,01,05,13,996.61
2024,03,01,05,14,996.58
2024,03,01,05,15,996.65
2024,03,01,05,16,996.65
2024,03,01,05,17,996.68
2024,03,01,05,18,996.68
2024,03,01,05,19,996.65
2024,03,01,05,20,996.65
2024,03,01,05,21,996.61
2024,03,01,05,22,996.65
2024,03,01,05,23,996.58
2024,03,01,05,24,996.61
2024,03,01,05,25,996.55
2024,03,01,05,26,996.55
2024,03,01,05,27,996.55
2024,03,01,05,28,996.48
2024,03,01,05,29,996.51
2024,03,01,05,30,996.51
2024,03,01,05,31,996.48
2024,03,01,05,32,996.45
2024,03,01,05,33,996.48
2024,03,01,05,34,996.51
2024,03,01,05,35,996.51
2024,03,01,05,36,996.55
2024,03,01,05,37,996.55
2024,03,01,05,38,996.58
2024,03,01,05,39,996.58
2024,03,01,05,40,996.58
2024,03,01,05,41,996.61
2024,03,01,05,42,996.61
2024,03,01,05,43,996.58
2024,03,01,05,44,996.58
2024,03,01,05,45,996.58
2024,03,01,05,46,996.65
2024,03,01,05,47,996.58
2024,03,01,05,48,996.65
2024,03,01,05,49,996.65
2024,03,01,05,50,996.61
2024,03,01,05,51,996.65
2024,03,01,05,52,996.65
2024,03,01,05,53,996.61
2024,03,01,05,54,996.58
2024,03,01,05,55,996.58
2024,03,01,05,56,996.55
2024,03,01,05,57,996.55
2024,03,01,05,58,996.55
2024,03,01,05,59,996.55
2024,03,01,06,00,996.55
2024,03,01,06,01,996.58
2024,03,01,06,02,996.55
2024,03,01,06,03,996.51
2024,03,01,06,04,996.51
2024,03,01,06,05,996.48
2024,03,01,06,06,996.48
2024,03,01,06,07,996.48
2024,03,01,06,08,996.41
2024,03,01,06,09,996.48
2024,03,01,06,10,996.45
2024,03,01,06,11,996.48
2024,03,01,06,12,996.48
2024,03,01,06,13,996.51
2024,03,01,06,14,996.48
2024,03,01,06,15,996.48
2024,03,01,06,16,996.48
2024,03,01,06,17,996.48
2024,03,01,06,18,996.51
2024,03,01,06,19,996.51
2024,03,01,06,20,996.51
2024,03,01,06,21,996.55
2024,03,01,06,22,996.51
2024,03,01,06,23,996.51
2024,03,01,06,24,996.51
2024,03,01,06,25,996.48
2024,03,01,06,26,996.45
2024,03,01,06,27,996.55
2024,03,01,06,28,996.48
2024,03,01,06,29,996.48
2024,03,01,06,30,996.48
2024,03,01,06,31,996.48
2024,03,01,06,32,996.51
2024,03,01,06,33,996.51
2024,03,01,06,34,996.48
2024,03,01,06,35,996.55
2024,03,01,06,36,996.48
2024,03,01,06,37,996.48
2024,03,01,06,38,996.48
2024,03,01,06,39,996.45
2024,03,01,06,40,996.48
2024,03,01,06,41,996.51
2024,03,01,06,42,996.48
2024,03,01,06,43,996.48
2024,03,01,06,44,996.45
2024,03,01,06,45,996.48
2024,03,01,06,46,996.45
2024,03,01,06,47,996.48
2024,03,01,06,48,996.51
2024,03,01,06,49,996.51
2024,03,01,06,50,996.51
2024,03,01,06,51,996.51
2024,03,01,06,52,996.45
2024,03,01,06,53,996.48
2024,03,01,06,54,996.51
2024,03,01,06,55,996.55
2024,03,01,06,56,996.55
2024,03,01,06,57,996.55
2024,03,01,06,58,996.55
2024,03,01,06,59,996.55
2024,03,01,07,00,996.55
2024,03,01,07,01,996.55
2024,03,01,07,02,996.55
2024,03,01,07,03,996.55
2024,03,01,07,04,996.58
2024,03,01,07,05,996.51
2024,03,01,07,06,996.55
2024,03,01,07,07,996.48
2024,03,01,07,08,996.55
2024,03,01,07,09,996.45
2024,03,01,07,10,996.45
2024,03,01,07,11,996.45
2024,03,01,07,12,996.45
2024,03,01,07,13,996.41
2024,03,01,07,14,996.38
2024,03,01,07,15,996.38
2024,03,01,07,16,996.38
2024,03,01,07,17,996.38
2024,03,01,07,18,996.38
2024,03,01,07,19,996.38
2024,03,01,07,20,996.45
2024,03,01,07,21,996.38
2024,03,01,07,22,996.38
2024,03,01,07,23,996.38
2024,03,01,07,24,996.38
2024,03,01,07,25,996.41
2024,03,01,07,26,996.38
2024,03,01,07,27,996.38
2024,03,01,07,28,996.38
2024,03,01,07,29,996.38
2024,03,01,07,30,996.34
2024,03,01,07,31,996.38
2024,03,01,07,32,996.34
2024,03,01,07,33,996.34
2024,03,01,07,34,996.28
2024,03,01,07,35,996.34
2024,03,01,07,36,996.31
2024,03,01,07,37,996.34
2024,03,01,07,38,996.31
2024,03,01,07,39,996.24
2024,03,01,07,40,996.34
2024,03,01,07,41,996.31
2024,03,01,07,42,996.31
2024,03,01,07,43,996.31
2024,03,01,07,44,996.24
2024,03,01,07,45,996.28
2024,03,01,07,46,996.24
2024,03,01,07,47,996.31
2024,03,01,07,48,996.28
2024,03,01,07,49,996.28
2024,03,01,07,50,996.28
2024,03,01,07,51,996.24
2024,03,01,07,52,996.31
2024,03,01,07,53,996.24
2024,03,01,07,54,996.28
2024,03,01,07,55,996.28
2024,03,01,07,56,996.28
2024,03,01,07,57,996.28
2024,03,01,07,58,996.34
2024,03,01,07,59,996.31
2024,03,01,08,00,996.28
2024,03,01,08,01,996.24
2024,03,01,08,02,996.24
2024,03,01,08,03,996.28
2024,03,01,08,04,996.24
2024,03,01,08,05,996.17
2024,03,01,08,06,996.21
2024,03,01,08,07,996.21
2024,03,01,08,08,996.24
2024,03,01,08,09,996.28
2024,03,01,08,10,996.28
2024,03,01,08,11,996.31
2024,03,01,08,12,996.21
2024,03,01,08,13,996.24
2024,03,01,08,14,996.28
2024,03,01,08,15,996.28
2024,03,01,08,16,996.24
2024,03,01,08,17,996.24
2024,03,01,08,18,996.17
2024,03,01,08,19,996.17
2024,03,01,08,20,996.17
2024,03,01,08,21,996.14
2024,03,01,08,22,996.14
2024,03,01,08,23,996.14
2024,03,01,08,24,996.04
2024,03,01,08,25,996.11
2024,03,01,08,26,996.07
2024,03,01,08,27,996.11
2024,03,01,08,28,996.11
2024,03,01,08,29,996.11
2024,03,01,08,30,996.07
2024,03,01,08,31,996.07
2024,03,01,08,32,995.97
2024,03,01,08,33,995.97
2024,03,01,08,34,995.97
2024,03,01,08,35,996.01
2024,03,01,08,36,996.04
2024,03,01,08,37,996.01
2024,03,01,08,38,995.97
2024,03,01,08,39,995.94
2024,03,01,08,40,995.94
2024,03,01,08,41,995.90
2024,03,01,08,42,995.94
2024,03,01,08,43,995.90
2024,03,01,08,44,995.97
2024,03,01,08,45,996.01
2024,03,01,08,46,995.97
2024,03,01,08,47,996.04
2024,03,01,08,48,996.07
2024,03,01,08,49,996.11
2024,03,01,08,50,996.14
2024,03,01,08,51,996.14
2024,03,01,08,52,996.31
2024,03,01,08,53,996.31
2024,03,01,08,54,996.28
2024,03,01,08,55,996.31
2024,03,01,08,56,996.31
2024,03,01,08,57,996.28
2024,03,01,08,58,996.34
2024,03,01,08,59,996.28
2024,03,01,09,00,996.17
2024,03,01,09,01,996.17
2024,03,01,09,02,996.14
2024,03,01,09,03,996.04
2024,03,01,09,04,996.01
2024,03,01,09,05,996.04
2024,03,01,09,06,996.04
2024,03,01,09,07,996.04
2024,03,01,09,08,996.04
2024,03,01,09,09,996.01
2024,03,01,09,10,996.01
2024,03,01,09,11,996.07
2024,03,01,09,12,996.04
2024,03,01,09,13,996.11
2024,03,01,09,14,996.04
2024,03,01,09,15,996.07
2024,03,01,09,16,996.07
2024,03,01,09,17,996.01
2024,03,01,09,18,996.04
2024,03,01,09,19,995.97
2024,03,01,09,20,995.94
2024,03,01,09,21,995.94
2024,03,01,09,22,995.90
2024,03,01,09,23,995.90
2024,03,01,09,24,995.87
2024,03,01,09,25,995.90
2024,03,01,09,26,995.77
2024,03,01,09,27,995.84
2024,03,01,09,28,995.77
2024,03,01,09,29,995.90
2024,03,01,09,30,995.80
2024,03,01,09,31,995.77
2024,03,01,09,32,995.87
2024,03,01,09,33,995.94
2024,03,01,09,34,995.90
2024,03,01,09,35,995.90
2024,03,01,09,36,995.90
2024,03,01,09,37,995.87
2024,03,01,09,38,995.87
2024,03,01,09,39,995.84
2024,03,01,09,40,995.80
2024,03,01,09,41,995.80
2024,03,01,09,42,995.84
2024,03,01,09,43,995.84
2024,03,01,09,44,995.84
2024,03,01,09,45,995.84
2024,03,01,09,46,995.87
2024,03,01,09,47,995.87
2024,03,01,09,48,995.90
2024,03,01,09,49,995.97
2024,03,01,09,50,995.94
2024,03,01,09,51,995.97
2024,03,01,09,52,995.97
2024,03,01,09,53,996.07
2024,03,01,09,54,996.01
2024,03,01,09,55,996.04
2024,03,01,09,56,995.97
2024,03,01,09,57,995.97
2024,03,01,09,58,995.94
2024,03,01,09,59,996.01
2024,03,01,10,00,995.94
2024,03,01,10,01,996.01
2024,03,01,10,02,995.97
2024,03,01,10,03,995.94
2024,03,01,10,04,995.97
2024,03,01,10,05,996.01
2024,03,01,10,06,996.04
2024,03,01,10,07,996.07
2024,03,01,10,08,996.11
2024,03,01,10,09,996.04
2024,03,01,10,10,996.07
2024,03,01,10,11,996.07
2024,03,01,10,12,996.11
2024,03,01,10,13,996.11
2024,03,01,10,14,996.04
2024,03,01,10,15,996.11
2024,03,01,10,16,996.01
2024,03,01,10,17,995.97
2024,03,01,10,18,995.97
2024,03,01,10,19,995.94
2024,03,01,10,20,995.97
2024,03,01,10,21,996.07
2024,03,01,10,22,996.07
2024,03,01,10,23,996.07
2024,03,01,10,24,996.04
2024,03,01,10,25,996.04
2024,03,01,10,26,996.04
2024,03,01,10,27,996.07
2024,03,01,10,28,996.14
2024,03,01,10,29,996.11
2024,03,01,10,30,996.07
2024,03,01,10,31,996.14
2024,03,01,10,32,996.07
2024,03,01,10,33,996.04
2024,03,01,10,34,996.11
2024,03,01,10,35,996.14
2024,03,01,10,36,996.04
2024,03,01,10,37,996.11
2024,03,01,10,38,996.04
2024,03,01,10,39,996.07
2024,03,01,10,40,996.01
2024,03,01,10,41,995.97
2024,03,01,10,42,996.04
2024,03,01,10,43,996.01
2024,03,01,10,44,996.01
2024,03,01,10,45,996.07
2024,03,01,10,46,996.11
2024,03,01,10,47,996.07
2024,03,01,10,48,996.04
2024,03,01,10,49,996.11
2024,03,01,10,50,996.07
2024,03,01,10,51,996.14
2024,03,01,10,52,996.11
2024,03,01,10,53,996.07
2024,03,01,10,54,996.07
2024,03,01,10,55,996.11
2024,03,01,10,56,996.04
2024,03,01,10,57,996.04
2024,03,01,10,58,996.04
2024,03,01,10,59,996.07
2024,03,01,11,00,996.14
2024,03,01,11,01,996.04
2024,03,01,11,02,996.11
2024,03,01,11,03,996.14
2024,03,01,11,04,996.14
2024,03,01,11,05,996.14
2024,03,01,11,06,996.17
2024,03,01,11,07,996.21
2024,03,01,11,08,996.21
2024,03,01,11,09,996.28
2024,03,01,11,10,996.24
2024,03,01,11,11,996.21
2024,03,01,11,12,996.24
2024,03,01,11,13,996.24
2024,03,01,11,14,996.24
2024,03,01,11,15,996.21
2024,03,01,11,16,996.28
2024,03,01,11,17,996.24
2024,03,01,11,18,996.24
2024,03,01,11,19,996.21
2024,03,01,11,20,996.21
2024,03,01,11,21,996.17
2024,03,01,11,22,996.24
2024,03,01,11,23,996.24
2024,03,01,11,24,996.21
2024,03,01,11,25,996.17
2024,03,01,11,26,996.14
2024,03,01,11,27,996.11
2024,03,01,11,28,996.14
2024,03,01,11,29,996.21
2024,03,01,11,30,996.17
2024,03,01,11,31,996.14
2024,03,01,11,32,996.21
2024,03,01,11,33,996.24
2024,03,01,11,34,996.21
2024,03,01,11,35,996.24
2024,03,01,11,36,996.24
2024,03,01,11,37,996.24
2024,03,01,11,38,996.24
2024,03,01,11,39,996.28
2024,03,01,11,40,996.24
2024,03,01,11,41,996.24
2024,03,01,11,42,996.21
2024,03,01,11,43,996.14
2024,03,01,11,44,996.21
2024,03,01,11,45,996.17
2024,03,01,11,46,996.14
2024,03,01,11,47,996.17
2024,03,01,11,48,996.21
2024,03,01,11,49,996.24
2024,03,01,11,50,996.24
2024,03,01,11,51,996.24
2024,03,01,11,52,996.24
2024,03,01,11,53,996.28
2024,03,01,11,54,996.28
2024,03,01,11,55,996.24
2024,03,01,11,56,996.17
2024,03,01,11,57,996.17
2024,03,01,11,58,996.21
2024,03,01,11,59,996.21
2024,03,01,12,00,996.21
2024,03,01,12,01,996.17
2024,03,01,12,02,996.17
2024,03,01,12,03,996.17
2024,03,01,12,04,996.14
2024,03,01,12,05,996.14
2024,03,01,12,06,996.07
2024,03,01,12,07,996.11
2024,03,01,12,08,996.07
2024,03,01,12,09,996.11
2024,03,01,12,10,996.07
2024,03,01,12,11,996.07
2024,03,01,12,12,996.11
2024,03,01,12,13,996.04
2024,03,01,12,14,996.01
2024,03,01,12,15,996.07
2024,03,01,12,16,996.04
2024,03,01,12,17,996.07
2024,03,01,12,18,996.04
2024,03,01,12,19,996.11
2024,03,01,12,20,996.07
2024,03,01,12,21,996.07
2024,03,01,12,22,996.01
2024,03,01,12,23,996.04
2024,03,01,12,24,996.04
2024,03,01,12,25,995.97
2024,03,01,12,26,996.01
2024,03,01,12,27,996.04
2024,03,01,12,28,996.01
2024,03,01,12,29,995.97
2024,03,01,12,30,996.01
2024,03,01,12,31,996.04
2024,03,01,12,32,996.01
2024,03,01,12,33,996.01
2024,03,01,12,34,996.01
2024,03,01,12,35,996.07
2024,03,01,12,36,995.94
2024,03,01,12,37,995.97
2024,03,01,12,38,996.01
2024,03,01,12,39,995.97
2024,03,01,12,40,996.01
2024,03,01,12,41,995.94
2024,03,01,12,42,995.97
2024,03,01,12,43,995.94
2024,03,01,12,44,995.94
2024,03,01,12,45,995.90
2024,03,01,12,46,995.90
2024,03,01,12,47,995.87
2024,03,01,12,48,995.90
2024,03,01,12,49,995.87
2024,03,01,12,50,995.90
2024,03,01,12,51,995.84
2024,03,01,12,52,995.84
2024,03,01,12,53,995.80
2024,03,01,12,54,995.80
2024,03,01,12,55,995.73
2024,03,01,12,56,995.77
2024,03,01,12,57,995.73
2024,03,01,12,58,995.80
2024,03,01,12,59,995.73
2024,03,01,13,00,995.73
2024,03,01,13,01,995.77
2024,03,01,13,02,995.77
2024,03,01,13,03,995.77
2024,03,01,13,04,995.80
2024,03,01,13,05,995.80
2024,03,01,13,06,995.80
2024,03,01,13,07,995.80
2024,03,01,13,08,995.80
2024,03,01,13,09,995.77
2024,03,01,13,10,995.73
2024,03,01,13,11,995.73
2024,03,01,13,12,995.73
2024,03,01,13,13,995.77
2024,03,01,13,14,995.80
2024,03,01,13,15,995.80
2024,03,01,13,16,995.77
2024,03,01,13,17,995.77
2024,03,01,13,18,995.77
2024,03,01,13,19,995.77
2024,03,01,13,20,995.77
2024,03,01,13,21,995.80
2024,03,01,13,22,995.80
2024,03,01,13,23,995.77
2024,03,01,13,24,995.73
2024,03,01,13,25,995.77
2024,03,01,13,26,995.77
2024,03,01,13,27,995.77
2024,03,01,13,28,995.77
2024,03,01,13,29,995.80
2024,03,01,13,30,995.77
2024,03,01,13,31,995.87
2024,03,01,13,32,995.84
2024,03,01,13,33,995.84
2024,03,01,13,34,995.84
2024,03,01,13,35,995.87
2024,03,01,13,36,995.90
2024,03,01,13,37,995.90
2024,03,01,13,38,995.90
2024,03,01,13,39,995.94
2024,03,01,13,40,995.97
2024,03,01,13,41,995.94
2024,03,01,13,42,995.94
2024,03,01,13,43,995.97
2024,03,01,13,44,995.97
2024,03,01,13,45,996.04
2024,03,01,13,46,996.01
2024,03,01,13,47,995.90
2024,03,01,13,48,995.94
2024,03,01,13,49,995.94
2024,03,01,13,50,995.87
2024,03,01,13,51,995.90
2024,03,01,13,52,995.87
2024,03,01,13,53,995.90
2024,03,01,13,54,995.87
2024,03,01,13,55,995.87
2024,03,01,13,56,995.87
2024,03,01,13,57,995.90
2024,03,01,13,58,995.90
2024,03,01,13,59,995.84
2024,03,01,14,00,995.90
2024,03,01,14,01,995.84
2024,03,01,14,02,995.87
2024,03,01,14,03,995.80
2024,03,01,14,04,995.77
2024,03,01,14,05,995.77
2024,03,01,14,06,995.77
2024,03,01,14,07,995.77
2024,03,01,14,08,995.80
2024,03,01,14,09,995.77
2024,03,01,14,10,995.77
2024,03,01,14,11,995.77
2024,03,01,14,12,995.73
2024,03,01,14,13,995.80
2024,03,01,14,14,995.80
2024,03,01,14,15,995.90
2024,03,01,14,16,995.77
2024,03,01,14,17,995.80
2024,03,01,14,18,995.84
2024,03,01,14,19,995.77
2024,03,01,14,20,995.77
2024,03,01,14,21,995.80
2024,03,01,14,22,995.77
2024,03,01,14,23,995.80
2024,03,01,14,24,995.80
2024,03,01,14,25,995.80
2024,03,01,14,26,995.77
2024,03,01,14,27,995.80
2024,03,01,14,28,995.80
2024,03,01,14,29,995.80
2024,03,01,14,30,995.80
2024,03,01,14,31,995.80
2024,03,01,14,32,995.87
2024,03,01,14,33,995.77
2024,03,01,14,34,995.90
2024,03,01,14,35,995.80
2024,03,01,14,36,995.84
2024,03,01,14,37,995.80
2024,03,01,14,38,995.73
2024,03,01,14,39,995.84
2024,03,01,14,40,995.77
2024,03,01,14,41,995.77
2024,03,01,14,42,995.77
2024,03,01,14,43,995.84
2024,03,01,14,44,995.87
2024,03,01,14,45,995.80
2024,03,01,14,46,995.87
2024,03,01,14,47,995.87
2024,03,01,14,48,995.90
2024,03,01,14,49,995.90
2024,03,01,14,50,995.87
2024,03,01,14,51,995.97
2024,03,01,14,52,996.01
2024,03,01,14,53,996.07
2024,03,01,14,54,996.14
2024,03,01,14,55,996.04
2024,03,01,14,56,996.07
2024,03,01,14,57,996.14
2024,03,01,14,58,996.17
2024,03,01,14,59,996.21
2024,03,01,15,00,996.38
2024,03,01,15,01,996.31
2024,03,01,15,02,996.28
2024,03,01,15,03,996.31
2024,03,01,15,04,996.34
2024,03,01,15,05,996.34
2024,03,01,15,06,996.41
2024,03,01,15,07,996.45
2024,03,01,15,08,996.51
2024,03,01,15,09,996.29
2024,03,01,15,10,996.17
2024,03,01,15,11,996.01
2024,03,01,15,12,996.04
2024,03,01,15,13,996.14
2024,03,01,15,14,996.07
2024,03,01,15,15,996.04
2024,03,01,15,16,996.07
2024,03,01,15,17,996.07
2024,03,01,15,18,996.11
2024,03,01,15,19,996.04
2024,03,01,15,20,996.04
2024,03,01,15,21,995.94
2024,03,01,15,22,995.94
2024,03,01,15,23,995.97
2024,03,01,15,24,995.97
2024,03,01,15,25,995.90
2024,03,01,15,26,995.84
2024,03,01,15,27,995.80
2024,03,01,15,28,995.84
2024,03,01,15,29,995.84
2024,03,01,15,30,995.84
2024,03,01,15,31,995.77
2024,03,01,15,32,995.77
2024,03,01,15,33,995.80
2024,03,01,15,34,995.84
2024,03,01,15,35,995.84
2024,03,01,15,36,995.90
2024,03,01,15,37,995.90
2024,03,01,15,38,995.90
2024,03,01,15,39,995.94
2024,03,01,15,40,996.04
2024,03,01,15,41,996.04
2024,03,01,15,42,996.07
2024,03,01,15,43,996.11
2024,03,01,15,44,996.11
2024,03,01,15,45,996.07
2024,03,01,15,46,996.04
2024,03,01,15,47,996.07
2024,03,01,15,48,996.04
2024,03,01,15,49,996.07
2024,03,01,15,50,996.01
2024,03,01,15,51,995.97
2024,03,01,15,52,995.87
2024,03,01,15,53,995.84
2024,03,01,15,54,995.77
2024,03,01,15,55,995.80
2024,03,01,15,56,995.80
2024,03,01,15,57,995.80
2024,03,01,15,58,995.77
2024,03,01,15,59,995.80
2024,03,01,16,00,995.77
2024,03,01,16,01,995.77
2024,03,01,16,02,995.80
2024,03,01,16,03,995.87
2024,03,01,16,04,995.84
2024,03,01,16,05,995.84
2024,03,01,16,06,995.84
2024,03,01,16,07,995.87
2024,03,01,16,08,995.94
2024,03,01,16,09,996.01
2024,03,01,16,10,996.04
2024,03,01,16,11,996.07
2024,03,01,16,12,996.01
2024,03,01,16,13,996.01
2024,03,01,16,14,995.97
2024,03,01,16,15,995.97
2024,03,01,16,16,995.94
2024,03,01,16,17,995.90
2024,03,01,16,18,995.94
2024,03,01,16,19,995.94
2024,03,01,16,20,995.87
2024,03,01,16,21,995.87
2024,03,01,16,22,995.87
2024,03,01,16,23,995.84
2024,03,01,16,24,995.84
2024,03,01,16,25,995.87
2024,03,01,16,26,995.87
2024,03,01,16,27,995.87
2024,03,01,16,28,995.90
2024,03,01,16,29,995.90
2024,03,01,16,30,995.94
2024,03,01,16,31,995.94
2024,03,01,16,32,995.97
2024,03,01,16,33,995.94
2024,03,01,16,34,995.90
2024,03,01,16,35,995.94
2024,03,01,16,36,995.94